TimeCDT,TemperatureF,Dew PointF,Humidity,Sea Level PressureIn,VisibilityMPH,Wind Direction,Wind SpeedMPH,Gust SpeedMPH,PrecipitationIn,Events,Conditions,WindDirDegrees,DateUTC
12:54 AM,66.9,55.9,68,29.78,10.0,North,6.9,-,N/A,,Overcast,360,2013-07-23 05:54:00
1:54 AM,66.0,55.0,68,29.79,10.0,North,10.4,18.4,N/A,,Overcast,360,2013-07-23 06:54:00
2:54 AM,61.0,54.0,78,29.80,10.0,NNW,6.9,-,N/A,,Clear,340,2013-07-23 07:54:00
3:54 AM,57.0,53.1,87,29.80,10.0,NW,6.9,-,N/A,,Clear,320,2013-07-23 08:54:00
4:54 AM,55.9,53.1,90,29.81,10.0,NNW,5.8,-,N/A,,Clear,330,2013-07-23 09:54:00
5:54 AM,55.9,53.1,90,29.83,10.0,NNW,9.2,-,N/A,,Clear,340,2013-07-23 10:54:00
6:54 AM,57.9,53.1,84,29.85,10.0,NNW,9.2,-,N/A,,Clear,340,2013-07-23 11:54:00
7:54 AM,60.1,52.0,75,29.88,10.0,North,13.8,20.7,N/A,,Clear,350,2013-07-23 12:54:00
8:54 AM,62.1,52.0,70,29.90,10.0,NNW,15.0,21.9,N/A,,Scattered Clouds,340,2013-07-23 13:54:00
9:01 AM,62.6,51.8,68,29.92,10.0,North,12.7,25.3,N/A,,Mostly Cloudy,360,2013-07-23 14:01:00
9:54 AM,62.1,50.0,65,29.92,10.0,North,12.7,20.7,N/A,,Overcast,10,2013-07-23 14:54:00
10:54 AM,63.0,48.9,60,29.93,10.0,North,11.5,19.6,N/A,,Mostly Cloudy,350,2013-07-23 15:54:00
11:32 AM,64.4,48.2,56,29.96,10.0,NNE,13.8,21.9,N/A,,Scattered Clouds,20,2013-07-23 16:32:00
11:54 AM,64.0,48.9,58,29.96,10.0,North,15.0,-,N/A,,Mostly Cloudy,10,2013-07-23 16:54:00
12:54 PM,66.0,50.0,56,29.96,10.0,NNW,12.7,-,N/A,,Mostly Cloudy,340,2013-07-23 17:54:00
1:54 PM,68.0,48.9,50,29.96,10.0,North,8.1,17.3,N/A,,Mostly Cloudy,10,2013-07-23 18:54:00
2:54 PM,70.0,50.0,49,29.97,10.0,NNW,8.1,-,N/A,,Partly Cloudy,330,2013-07-23 19:54:00
3:54 PM,71.1,48.9,45,29.97,10.0,North,9.2,-,N/A,,Scattered Clouds,360,2013-07-23 20:54:00
4:54 PM,70.0,48.9,47,29.97,10.0,NE,9.2,-,N/A,,Partly Cloudy,40,2013-07-23 21:54:00
5:54 PM,71.1,48.0,44,29.96,10.0,NE,10.4,17.3,N/A,,Partly Cloudy,40,2013-07-23 22:54:00
6:54 PM,70.0,46.9,44,29.97,10.0,North,9.2,-,N/A,,Clear,360,2013-07-23 23:54:00
7:54 PM,66.9,46.9,49,29.98,10.0,NNE,6.9,-,N/A,,Clear,30,2013-07-24 00:54:00
8:54 PM,63.0,46.9,56,30.00,10.0,NNE,5.8,-,N/A,,Clear,30,2013-07-24 01:54:00
9:54 PM,60.1,46.9,62,30.02,10.0,NE,4.6,-,N/A,,Clear,40,2013-07-24 02:54:00
10:54 PM,57.9,46.9,67,30.03,10.0,NE,5.8,-,N/A,,Clear,40,2013-07-24 03:54:00
11:54 PM,55.9,46.0,69,30.03,10.0,NNE,3.5,-,N/A,,Clear,30,2013-07-24 04:54:00